Location: *
(60.1759°S, 155.0663°W)
Time: 15:23:11
(UTC+00:00)

Cosmos 1437 - Pass Details

Date: 17 September 2019
Orbit: 381 x 387 km, 81.2° (Epoch: 20 October)

Event Time Altitude Azimuth Distance (km) Brightness Sun altitude
Exits shadow 14:07:08 49° 256° (WSW) 528 2.9 -17.2°
Maximum altitude 14:07:14 49° 248° (WSW) 526 2.9 -17.2°
Drops below altitude 10° 14:10:20 10° 171° (S) 1,462 6.0 -16.9°
Sets 14:12:24 0° 165° (SSE) 2,328 7.2 -16.7°
